Location: Albany
(35.0000°S, 118.0000°E)
Time: 20:21:10
(UTC-04:00)

SJ-6B - Visible Passes

Search period start: 01 October 2014 00:00
Search period end: 11 October 2014 00:00
Orbit: 520 x 597 km, 97.8° (Epoch: 01 October)

Date Brightness Start Highest point End Pass type
(mag) Time Alt. Az. Time Alt. Az. Time Alt. Az.
01 Oct 5.1 17:06:42 10° NE 17:10:04 30° ESE 17:13:26 10° S visible
02 Oct 5.2 17:05:08 10° NE 17:08:26 29° ESE 17:11:45 10° SSE visible
03 Oct 5.3 17:03:33 10° NE 17:06:47 27° ESE 17:10:04 10° SSE visible
04 Oct 5.4 17:01:57 10° NE 17:05:08 26° ESE 17:08:21 10° SSE visible
05 Oct 5.5 17:00:21 10° NE 17:03:29 25° ESE 17:06:38 10° SSE visible
06 Oct 5.6 16:58:45 10° NE 17:01:49 24° ESE 17:04:55 10° SSE visible
07 Oct 5.7 16:57:09 10° ENE 17:00:09 22° ESE 17:03:10 10° SSE visible
08 Oct 5.8 16:55:32 10° ENE 16:58:28 21° ESE 17:01:25 10° SSE visible
09 Oct 5.9 16:53:55 10° ENE 16:56:46 20° ESE 16:59:39 10° SSE visible
10 Oct 6.7 07:45:55 10° SW 07:46:47 11° WSW 07:47:40 10° WSW visible
10 Oct 6.0 16:52:18 10° ENE 16:55:04 20° ESE 16:57:53 10° SSE visible
